Torna al catalogo

CSO-1

AttivoMilitareSSO
NORAD 43866·PAYLOAD·🇫🇷 France

Lanciato Dec 19, 2018 da Guiana Space Centre

Loading…

Prossimi Passaggi (prossime 24 ore)

TLE

ObsoletoSource: Mike McCants

Epoca: Aug 26, 2026, 02:13 UTC

1 43866U 18106A   26238.09305404 0.00000000  00000-0  00000-0 0    02
2 43866  98.5979 176.9049 0006239  40.9466 318.9479 14.26736493    07

Traccia CSO-1 in tempo reale con AllMySat

Download on the App Store